Showing default

EXPLORER 36 (GEOS 2), 3093

Orbit data source: Space-Track

EXPLORER 36 (GEOS 2), 3093 is a payload satellite owned by GSFC (US) in LEO that was launched on Thu, 11 Jan 1968 UTC via a THOR DELTA E1 launch vehicle from the Air Force Western Test Range (AFWTR). Payload-class satellites include a variety of spacecraft equipped with specific instruments for various scientific and technological missions. These include communications satellites like Starlink; space stations such as the ISS; scientific satellites like the Hubble; Earth observation satellites from companies like Planet Labs, Umbra, and HawkEye 360; GPS; miniature CubeSats for education and research; and military/defense satellites.

Loading next visibility...
Identifier
3093, 1968-002A
Orbit
LEO
Last TLE update
10 hours ago
Origin
Manufacturer
APL
Mission
Civil Geodetic
Bus & Motor
ANNA, Unknown motor
Mass
212 kg wet, 212 kg dry
Launch date (UTC)
1968-01-11 (58 years ago)
Launch vehicle
THOR DELTA E1
Launch site
Air Force Western Test Range (AFWTR)
Object type
Payload
Rocket body
Debris
Shape & HBR
Oct Cyl + 1 Dome + 1 Ant, 4.5 m
Radar Cross Section
2.095 m², Large (>1 m²)

Expand to show TLE details & history

TLE from 10 hours ago
0 EXPLORER 36 (GEOS 2)
1 03093U 68002A   25199.55424396 -.00000049  00000-0  94784-4 0  9995
2 03093 105.7862 312.5242 0319388 287.2350  81.3221 12.83587066694556
Epoch: 2025-07-18T13:18Z
TLE epoch observation values (Epoch: 2025-07-18T13:18:06.678Z)
Latitude
11.69161°
Longitude
173.05523°
Altitude
1,299.361 km
Speed
7.222 km/s
True Right ascension
20h 36m 44s
True Declination
11° 37' 42"
Sunlit
Object was in full shadow at epoch
Visualization orbit readout
Latitude
17.58328°
Longitude
2.10011°
Altitude
1,464.195 km
Speed
7.069 km/s
Apparent Right ascension
06h 29m 35s
Apparent Declination
-17° 44' 28"
Sunlit
Object is in daylight
Visualization observer readout
Local Sidereal Time
12:15:32
Azimuth
254.08° W
Elevation
-8.671°
Doppler factor
1
Orbital elements
Apogee altitude
1,570.884 km
Perigee altitude
1,078.835 km
Semi-major axis
7,702.997 km
Eccentricity
0.03194
Inclination
105.7862°
RAAN
312.5242°
Arg. of periapsis
287.235°
True anomaly
84.95959°
Mean anomaly
81.3221°
Eccentric anomaly
83.13895°
Mean motion
3.21036 °/min
Orbital period
112.14 mins
BSTAR
0.000094784
Loading maneuver chart data...
Loading SW <> Apogee altitude chart data...
Loading historical data...
Loading historical data...
Loading historical data...
Loading historical data...
Loading historical data...
Loading historical data...
Loading historical data...
|